Location: Mt. Graham
(32.7020°N, 109.8880°W)
Time: 06:23:14
(UTC-07:00)

ISS - Visible Passes

Search period start: 25 September 2017 00:00
Search period end: 05 October 2017 00:00
Orbit: 401 x 407 km, 51.6° (Epoch: 25 September)

Date Brightness Start Highest point End Pass type
(mag) Time Alt. Az. Time Alt. Az. Time Alt. Az.
25 Sep -1.4 19:59:38 10° W 20:02:07 20° NW 20:02:57 18° NNW visible
26 Sep -2.4 19:06:36 10° WSW 19:09:38 37° NW 19:12:42 10° NNE visible
28 Sep -1.1 18:59:20 10° WNW 19:01:30 17° NNW 19:03:41 10° N visible
